| time (UTC) | temp F | wind direction | speed MPH | gust MPH | rain 1hr in | rain 24hr in | rain mn in | humidity % | barometer mb |
| 20260506133447 | 56 | 306 | 4.0 | 7.0 | 0.00 | 1.06 | 0.60 | 87 | 1006.6 |
| 20260506132446 | 57 | 328 | 3.0 | 4.0 | 0.00 | 1.13 | 0.60 | 85 | 1006.7 |
| 20260506131443 | 57 | 292 | 3.0 | 4.0 | 0.00 | 1.19 | 0.60 | 84 | 1006.6 |
| 20260506130442 | 58 | 313 | 4.0 | 8.0 | 0.00 | 1.21 | 0.60 | 85 | 1006.6 |
| 20260506125441 | 58 | 303 | 2.0 | 6.0 | 0.00 | 1.23 | 0.60 | 84 | 1006.5 |
| 20260506124439 | 59 | 352 | 6.0 | 11.0 | 0.00 | 1.23 | 0.60 | 84 | 1006.4 |
| 20260506123436 | 58 | 13 | 5.0 | 6.0 | 0.00 | 1.23 | 0.60 | 85 | 1006.4 |
| 20260506122434 | 58 | 328 | 4.0 | 8.0 | 0.00 | 1.23 | 0.60 | 85 | 1006.4 |
| 20260506121433 | 60 | 330 | 6.0 | 9.0 | 0.00 | 1.23 | 0.60 | 79 | 1006.5 |
| 20260506120430 | 59 | 112 | 3.0 | 5.0 | 0.00 | 1.25 | 0.60 | 78 | 1006.5 |
| 20260506115448 | 59 | 103 | 3.0 | 6.0 | 0.00 | 1.26 | 0.60 | 79 | 1006.4 |
| 20260506114425 | 59 | 157 | 1.0 | 4.0 | 0.00 | 1.26 | 0.60 | 80 | 1006.4 |
| 20260506113423 | 58 | 95 | 5.0 | 8.0 | 0.00 | 1.26 | 0.60 | 79 | 1006.4 |
| 20260506112421 | 58 | 111 | 6.0 | 9.0 | 0.00 | 1.26 | 0.60 | 80 | 1006.4 |
| 20260506111418 | 58 | 136 | 4.0 | 9.0 | 0.00 | 1.26 | 0.60 | 79 | 1006.4 |
| 20260506110415 | 57 | 175 | 3.0 | 5.0 | 0.00 | 1.26 | 0.60 | 82 | 1006.4 |
| 20260506105434 | 58 | 91 | 7.0 | 9.0 | 0.00 | 1.26 | 0.60 | 83 | 1006.4 |
| 20260506104412 | 58 | 118 | 4.0 | 5.0 | 0.00 | 1.26 | 0.60 | 83 | 1006.4 |
| 20260506103430 | 58 | 110 | 5.0 | 9.0 | 0.00 | 1.26 | 0.60 | 84 | 1006.4 |
| 20260506102408 | 57 | 147 | 7.0 | 10.0 | 0.00 | 1.26 | 0.60 | 87 | 1006.3 |
| 20260506101407 | 56 | 109 | 6.0 | 7.0 | 0.00 | 1.26 | 0.60 | 87 | 1006.4 |
| 20260506100446 | 56 | 113 | 7.0 | 10.0 | 0.00 | 1.26 | 0.60 | 88 | 1006.3 |
| 20260506095405 | 57 | 134 | 4.0 | 11.0 | 0.00 | 1.26 | 0.60 | 88 | 1006.2 |
| 20260506094403 | 57 | 124 | 5.0 | 11.0 | 0.00 | 1.26 | 0.60 | 88 | 1006.1 |
| 20260506093402 | 57 | 118 | 6.0 | 10.0 | 0.00 | 1.26 | 0.60 | 88 | 1006.1 |
| 20260506092401 | 56 | 110 | 6.0 | 8.0 | 0.00 | 1.26 | 0.60 | 88 | 1006.0 |
| 20260506091359 | 57 | 109 | 4.0 | 6.0 | 0.00 | 1.26 | 0.60 | 85 | 1006.1 |
| 20260506090357 | 58 | 123 | 1.0 | 2.0 | 0.00 | 1.26 | 0.60 | 84 | 1006.0 |
| 20260506085355 | 56 | 129 | 6.0 | 9.0 | 0.00 | 1.26 | 0.60 | 85 | 1005.9 |
| 20260506084354 | 56 | 132 | 4.0 | 8.0 | 0.00 | 1.26 | 0.60 | 86 | 1005.9 |
| 20260506083352 | 56 | 110 | 5.0 | 7.0 | 0.00 | 1.26 | 0.60 | 87 | 1005.8 |
| 20260506082351 | 56 | 113 | 2.0 | 4.0 | 0.00 | 1.26 | 0.60 | 88 | 1005.8 |
| 20260506081349 | 56 | 113 | 6.0 | 6.0 | 0.00 | 1.26 | 0.60 | 88 | 1005.8 |
| 20260506080347 | 57 | 110 | 3.0 | 7.0 | 0.00 | 1.26 | 0.60 | 86 | 1005.7 |
| 20260506073342 | 55 | 92 | 4.0 | 6.0 | 0.00 | 1.26 | 0.60 | 91 | 1005.6 |
| 20260506072341 | 54 | 117 | 4.0 | 4.0 | 0.00 | 1.26 | 0.60 | 93 | 1005.7 |
| 20260506071339 | 53 | 112 | 5.0 | 6.0 | 0.02 | 1.26 | 0.60 | 94 | 1005.6 |
| 20260506070338 | 53 | 110 | 5.0 | 8.0 | 0.03 | 1.26 | 0.60 | 94 | 1005.6 |
| 20260506062330 | 52 | 148 | 3.0 | 4.0 | 0.06 | 1.26 | 0.60 | 95 | 1005.6 |
| 20260506061328 | 52 | 175 | 1.0 | 3.0 | 0.06 | 1.24 | 0.59 | 95 | 1005.6 |
| 20260506060327 | 52 | 159 | 2.0 | 7.0 | 0.07 | 1.23 | 0.57 | 95 | 1005.4 |
| 20260506051318 | 51 | 282 | 1.0 | 1.0 | 0.06 | 1.19 | 0.53 | 96 | 1005.6 |
| 20260506050317 | 51 | 251 | 1.0 | 2.0 | 0.04 | 1.16 | 0.50 | 97 | 1005.6 |
| 20260506044354 | 51 | 183 | 0.0 | 1.0 | 0.03 | 1.15 | 0.49 | 97 | 1005.6 |
| 20260506043313 | 51 | 286 | 1.0 | 1.0 | 0.02 | 1.14 | 0.48 | 97 | 1005.6 |
| 20260506042311 | 51 | 13 | 1.0 | 1.0 | 0.01 | 1.13 | 0.47 | 97 | 1005.6 |
| 20260506041310 | 51 | 352 | 1.0 | 1.0 | 0.00 | 1.12 | 0.47 | 97 | 1005.8 |
| 20260506040309 | 51 | 282 | 1.0 | 1.0 | 0.00 | 1.12 | 0.46 | 97 | 1005.8 |
| 20260506035308 | 51 | 289 | 1.0 | 2.0 | 0.00 | 1.12 | 0.46 | 97 | 1005.8 |
| 20260506034307 | 51 | 282 | 0.0 | 1.0 | 0.00 | 1.12 | 0.46 | 97 | 1005.8 |
| 20260506033306 | 51 | 260 | 1.0 | 1.0 | 0.00 | 1.13 | 0.46 | 97 | 1005.9 |
| 20260506032306 | 51 | 4 | 2.0 | 3.0 | 0.00 | 1.13 | 0.46 | 97 | 1006.1 |
| 20260506031303 | 51 | 326 | 1.0 | 1.0 | 0.01 | 1.13 | 0.46 | 97 | 1006.2 |
| 20260506030323 | 51 | 355 | 2.0 | 2.0 | 0.01 | 1.13 | 0.46 | 97 | 1006.3 |
| 20260506025305 | 51 | 301 | 1.0 | 2.0 | 0.01 | 1.13 | 0.46 | 96 | 1006.3 |
| 20260506024300 | 51 | 2 | 2.0 | 3.0 | 0.02 | 1.13 | 0.46 | 96 | 1006.4 |
| 20260506023258 | 51 | 310 | 1.0 | 1.0 | 0.04 | 1.13 | 0.46 | 96 | 1006.4 |
| 20260506022256 | 51 | 279 | 1.0 | 1.0 | 0.07 | 1.13 | 0.46 | 96 | 1006.5 |
| 20260506021255 | 51 | 220 | 0.0 | 0.0 | 0.09 | 1.13 | 0.46 | 97 | 1006.5 |
| 20260506020254 | 51 | 348 | 0.0 | 1.0 | 0.11 | 1.13 | 0.45 | 97 | 1006.6 |
| 20260506015312 | 51 | 1 | 1.0 | 1.0 | 0.13 | 1.13 | 0.45 | 97 | 1006.5 |
| 20260506014251 | 51 | 240 | 1.0 | 1.0 | 0.15 | 1.11 | 0.44 | 96 | 1006.6 |
| 20260506013249 | 51 | 228 | 0.0 | 1.0 | 0.15 | 1.09 | 0.42 | 96 | 1006.7 |
| 20260506012247 | 51 | 253 | 0.0 | 1.0 | 0.14 | 1.06 | 0.39 | 96 | 1006.8 |
| 20260506011245 | 52 | 300 | 1.0 | 1.0 | 0.14 | 1.04 | 0.36 | 97 | 1006.8 |
| 20260506010244 | 52 | 335 | 1.0 | 2.0 | 0.15 | 1.02 | 0.34 | 97 | 1006.9 |
| 20260506005242 | 52 | 294 | 1.0 | 3.0 | 0.15 | 0.99 | 0.32 | 96 | 1007.0 |
| 20260506004240 | 52 | 279 | 2.0 | 2.0 | 0.16 | 0.97 | 0.29 | 96 | 1007.1 |
| 20260506003235 | 52 | 14 | 2.0 | 2.0 | 0.15 | 0.95 | 0.27 | 96 | 1007.1 |
| 20260506002233 | 52 | 277 | 1.0 | 3.0 | 0.14 | 0.92 | 0.24 | 96 | 1007.3 |
| 20260506001241 | 52 | 288 | 2.0 | 4.0 | 0.12 | 0.89 | 0.22 | 96 | 1007.4 |
| 20260506000219 | 53 | 283 | 2.0 | 3.0 | 0.10 | 0.86 | 0.19 | 95 | 1007.6 |
| 20260505235218 | 53 | 323 | 2.0 | 5.0 | 0.09 | 0.84 | 0.16 | 95 | 1007.7 |
| 20260505234216 | 53 | 322 | 2.0 | 3.0 | 0.08 | 0.81 | 0.14 | 94 | 1007.8 |
| 20260505233215 | 54 | 301 | 1.0 | 2.0 | 0.07 | 0.79 | 0.12 | 95 | 1007.8 |
| 20260505232213 | 54 | 167 | 5.0 | 10.0 | 0.07 | 0.78 | 0.11 | 94 | 1007.8 |
| 20260505231211 | 54 | 172 | 2.0 | 4.0 | 0.08 | 0.78 | 0.10 | 94 | 1007.8 |
| 20260505230210 | 54 | 165 | 3.0 | 4.0 | 0.08 | 0.76 | 0.08 | 95 | 1007.9 |
| 20260505225208 | 54 | 210 | 2.0 | 2.0 | 0.09 | 0.75 | 0.07 | 95 | 1007.9 |
| 20260505224207 | 54 | 298 | 1.0 | 2.0 | 0.09 | 0.73 | 0.06 | 96 | 1008.0 |
| 20260505223206 | 54 | 276 | 1.0 | 4.0 | 0.10 | 0.72 | 0.04 | 96 | 1008.1 |
| 20260505222225 | 54 | 308 | 2.0 | 3.0 | 0.12 | 0.71 | 0.03 | 96 | 1008.0 |
| 20260505221203 | 54 | 296 | 2.0 | 2.0 | 0.13 | 0.70 | 0.02 | 97 | 1008.1 |
| 20260505220202 | 54 | 290 | 2.0 | 3.0 | 0.14 | 0.68 | 0.00 | 96 | 1008.1 |
| 20260505215716 | 54 | 293 | 2.0 | 3.0 | 0.14 | 0.67 | 0.67 | 96 | 1008.1 |
| 20260505214714 | 54 | 317 | 2.0 | 3.0 | 0.14 | 0.65 | 0.65 | 96 | 1008.1 |
| 20260505213712 | 54 | 285 | 1.0 | 2.0 | 0.15 | 0.63 | 0.63 | 97 | 1008.3 |
| 20260505212650 | 54 | 263 | 2.0 | 2.0 | 0.15 | 0.61 | 0.61 | 97 | 1008.4 |
| 20260505211648 | 54 | 235 | 1.0 | 1.0 | 0.14 | 0.58 | 0.58 | 96 | 1008.3 |
| 20260505210727 | 54 | 341 | 2.0 | 2.0 | 0.13 | 0.55 | 0.55 | 96 | 1008.2 |
| 20260505205645 | 54 | 1 | 2.0 | 2.0 | 0.13 | 0.53 | 0.53 | 95 | 1008.2 |
| 20260505204643 | 53 | 231 | 0.0 | 0.0 | 0.12 | 0.50 | 0.50 | 96 | 1008.4 |
| 20260505203641 | 53 | 22 | 1.0 | 1.0 | 0.12 | 0.48 | 0.48 | 96 | 1008.4 |
| 20260505202640 | 54 | 165 | 1.0 | 1.0 | 0.13 | 0.46 | 0.46 | 95 | 1008.4 |
| 20260505201639 | 54 | 25 | 2.0 | 3.0 | 0.13 | 0.44 | 0.44 | 95 | 1008.4 |
| 20260505200637 | 54 | 267 | 1.0 | 1.0 | 0.11 | 0.42 | 0.42 | 95 | 1008.4 |
| 20260505195635 | 54 | 301 | 1.0 | 1.0 | 0.09 | 0.40 | 0.40 | 95 | 1008.3 |
| 20260505194634 | 54 | 304 | 1.0 | 2.0 | 0.07 | 0.38 | 0.38 | 95 | 1008.2 |
| 20260505193652 | 54 | 326 | 2.0 | 4.0 | 0.05 | 0.36 | 0.36 | 94 | 1008.1 |
| 20260505192631 | 54 | 295 | 2.0 | 2.0 | 0.03 | 0.34 | 0.34 | 94 | 1008.0 |
| 20260505191629 | 54 | 312 | 3.0 | 4.0 | 0.02 | 0.32 | 0.32 | 93 | 1007.9 |
| 20260505190628 | 54 | 319 | 3.0 | 3.0 | 0.01 | 0.31 | 0.31 | 93 | 1007.9 |
| 20260505185626 | 55 | 318 | 2.0 | 4.0 | 0.01 | 0.31 | 0.31 | 92 | 1007.8 |
| 20260505184624 | 55 | 305 | 2.0 | 5.0 | 0.01 | 0.31 | 0.31 | 93 | 1007.9 |
| 20260505183622 | 55 | 333 | 2.0 | 3.0 | 0.01 | 0.30 | 0.30 | 93 | 1008.0 |
| 20260505182621 | 55 | 348 | 2.0 | 3.0 | 0.01 | 0.30 | 0.30 | 93 | 1008.0 |
| 20260505181619 | 55 | 310 | 2.0 | 2.0 | 0.01 | 0.30 | 0.30 | 93 | 1008.0 |
| 20260505180618 | 56 | 272 | 2.0 | 3.0 | 0.00 | 0.30 | 0.30 | 92 | 1007.9 |
| 20260505175611 | 56 | 308 | 1.0 | 2.0 | 0.00 | 0.30 | 0.30 | 92 | 1008.0 |
| 20260505174610 | 56 | 343 | 2.0 | 3.0 | 0.00 | 0.30 | 0.30 | 91 | 1007.9 |
| 20260505173609 | 57 | 357 | 2.0 | 3.0 | 0.00 | 0.30 | 0.30 | 90 | 1008.1 |
| 20260505172607 | 57 | 1 | 2.0 | 3.0 | 0.00 | 0.29 | 0.29 | 87 | 1007.9 |
| 20260505171606 | 58 | 0.0 | 0.0 | 0.00 | 0.29 | 0.29 | 86 | 1008.0 | |
| 20260505170625 | 58 | 0.0 | 0.0 | 0.00 | 0.29 | 0.29 | 87 | 1008.0 | |
| 20260505165604 | 56 | 0.0 | 0.0 | 0.00 | 0.29 | 0.29 | 88 | 1008.0 | |
| 20260505164602 | 56 | 0.0 | 0.0 | 0.00 | 0.29 | 0.29 | 87 | 1008.1 | |
| 20260505163601 | 58 | 10 | 3.0 | 4.0 | 0.02 | 0.29 | 0.29 | 86 | 1008.3 |
| 20260505162600 | 58 | 20 | 4.0 | 9.0 | 0.04 | 0.29 | 0.29 | 85 | 1008.3 |
| 20260505161558 | 58 | 61 | 4.0 | 5.0 | 0.06 | 0.29 | 0.29 | 86 | 1008.3 |
| 20260505160556 | 58 | 45 | 3.0 | 10.0 | 0.07 | 0.29 | 0.29 | 85 | 1008.4 |
| 20260505152550 | 59 | 354 | 5.0 | 7.0 | 0.03 | 0.25 | 0.25 | 87 | 1008.8 |
| 20260505151609 | 60 | 347 | 3.0 | 7.0 | 0.01 | 0.23 | 0.23 | 85 | 1008.9 |
| 20260505150547 | 61 | 14 | 2.0 | 6.0 | 0.00 | 0.22 | 0.22 | 86 | 1008.9 |
| 20260505140537 | 60 | 0.0 | 0.0 | 0.15 | 0.22 | 0.22 | 89 | 1009.1 |